BMCB-5 Weather Reports


time (UTC)temp
C
wind
direction
speed
KPH
gust
KPH
rain 1hr
cm
rain 24hr
cm
rain mn
cm
humidity
%
barometer
mb
20260510063056 11 0 0.0 0.0 0.00 0.00 0.00 87 1019.8
20260510062058 11 0 0.0 0.0 0.00 0.00 0.00 87 1019.8
20260510061054 10 0 0.0 0.0 0.00 0.00 0.00 87 1019.7
20260510055056 10 0 0.0 0.0 0.00 0.00 0.00 88 1019.7
20260510053100 10 0 0.0 0.0 0.00 0.00 0.00 88 1019.6
20260510051056 10 0 0.0 0.0 0.00 0.00 0.00 88 1019.6
20260510050057 10 0 0.0 0.0 0.00 0.00 0.00 89 1019.6
20260510045057 10 0 0.0 0.0 0.00 0.00 0.00 88 1019.7
20260510044056 9 0 0.0 0.0 0.00 0.00 0.00 88 1019.7
20260510041056 9 0 0.0 0.0 0.00 0.00 0.00 87 1019.6
20260510040057 10 0 0.0 0.0 0.00 0.00 0.00 86 1019.6
20260510035058 10 0 0.0 0.0 0.00 0.00 0.00 85 1019.6
20260510034058 9 0 0.0 0.0 0.00 0.00 0.00 86 1019.7
20260510033059 9 0 0.0 0.0 0.00 0.00 0.00 86 1019.7
20260510032056 10 0 0.0 0.0 0.00 0.00 0.00 85 1019.7
20260510025053 10 0 0.0 0.0 0.00 0.00 0.00 83 1019.9
20260510024056 10 0 0.0 0.0 0.00 0.00 0.00 82 1019.9
20260510023057 10 0 0.0 0.0 0.00 0.00 0.00 81 1019.9
20260510022055 10 0 0.0 0.0 0.00 0.00 0.00 82 1019.9
20260510021054 10 0 0.0 0.0 0.00 0.00 0.00 81 1019.9
20260510020056 10 0 0.0 0.0 0.00 0.00 0.00 81 1020.0
20260510015057 10 0 0.0 0.0 0.00 0.00 0.00 80 1020.1
20260510014055 10 0 0.0 0.0 0.00 0.00 0.00 80 1020.1
20260510013057 10 0 0.0 0.0 0.00 0.00 0.00 80 1020.1
20260510012056 10 0 0.0 0.0 0.00 0.00 0.00 80 1020.2
20260510011054 10 0 0.0 0.0 0.00 0.00 0.00 80 1020.4
20260510010057 10 0 0.0 0.0 0.00 0.00 0.00 80 1020.4
20260510005055 10 0 0.0 0.0 0.00 0.00 0.00 81 1020.5
20260510004058 10 0 0.0 0.0 0.00 0.00 0.00 82 1020.5
20260510003055 10 0 0.0 0.0 0.00 0.00 0.00 80 1020.5
20260510002055 11 0 0.0 0.0 0.00 0.00 0.00 78 1020.6
20260510001056 11 0 0.0 0.0 0.00 0.00 0.00 78 1020.7
20260510000059 11 0 0.0 0.0 0.00 0.00 0.00 79 1020.8
20260509235111 11 0 0.0 0.0 0.00 0.00 0.00 78 1020.8
20260509232108 11 0 0.0 0.0 0.00 0.00 0.00 78 1020.9
20260509231103 11 0 0.0 0.0 0.00 0.00 0.00 77 1021.1
20260509230105 11 0 0.0 0.0 0.00 0.00 0.00 77 1021.0
20260509225109 11 0 0.0 0.0 0.00 0.00 0.00 76 1020.9
20260509224108 12 0 0.0 0.0 0.00 0.00 0.00 76 1020.9
20260509223106 12 0 0.0 0.0 0.00 0.00 0.00 75 1020.9
20260509222108 12 0 0.0 0.0 0.00 0.00 0.00 76 1021.0
20260509221107 12 0 0.0 0.0 0.00 0.00 0.00 77 1021.0
20260509215115 12 0 0.0 0.0 0.00 0.00 0.00 74 1021.0
20260509205116 13 0 0.0 0.0 0.00 0.00 0.00 72 1020.9
20260509203111 13 0 0.0 0.0 0.00 0.00 0.00 69 1021.0
20260509201118 15 0 0.0 0.0 0.00 0.00 0.00 66 1020.8
20260509195113 15 0 0.0 0.0 0.00 0.00 0.00 67 1020.7
20260509193111 15 0 0.0 0.0 0.00 0.00 0.00 65 1020.5
20260509192113 16 0 0.0 0.0 0.00 0.00 0.00 61 1020.5
20260509185113 17 0 0.0 0.0 0.00 0.00 0.00 58 1020.3
20260509184109 17 0 0.0 0.0 0.00 0.00 0.00 57 1020.3
20260509182111 18 0 0.0 0.0 0.00 0.00 0.00 54 1020.2
20260509174111 20 0 0.0 0.0 0.00 0.00 0.00 51 1020.2
20260509173108 20 0 0.0 0.0 0.00 0.00 0.00 51 1020.1
20260509172109 20 0 0.0 0.0 0.00 0.00 0.00 50 1019.9
20260509171104 20 0 0.0 0.0 0.00 0.00 0.00 49 1019.9
20260509170108 20 0 0.0 0.0 0.00 0.00 0.00 48 1019.9
20260509165105 20 0 0.0 0.0 0.00 0.00 0.00 48 1020.0
20260509164108 20 0 0.0 0.0 0.00 0.00 0.00 48 1020.1
20260509162106 20 0 0.0 0.0 0.00 0.00 0.00 47 1020.1
20260509161106 20 0 0.0 0.0 0.00 0.00 0.00 46 1020.1
20260509155100 20 0 0.0 0.0 0.00 0.00 0.00 46 1020.1
20260509154104 21 0 0.0 0.0 0.00 0.00 0.00 46 1020.1
20260509153104 21 0 0.0 0.0 0.00 0.00 0.00 48 1020.1
20260509151101 21 0 0.0 0.0 0.00 0.00 0.00 47 1020.3
20260509145103 21 0 0.0 0.0 0.00 0.00 0.00 45 1020.4
20260509144059 21 0 0.0 0.0 0.00 0.00 0.00 47 1020.5
20260509143059 21 0 0.0 0.0 0.00 0.00 0.00 46 1020.5
20260509142101 21 0 0.0 0.0 0.00 0.00 0.00 47 1020.7
20260509141100 22 0 0.0 0.0 0.00 0.00 0.00 48 1020.6
20260509140059 21 0 0.0 0.0 0.00 0.00 0.00 47 1020.7
20260509135101 21 0 0.0 0.0 0.00 0.00 0.00 47 1020.8
20260509133103 21 0 0.0 0.0 0.00 0.00 0.00 48 1020.9
20260509132059 21 0 0.0 0.0 0.00 0.00 0.00 48 1021.0
20260509130058 21 0 0.0 0.0 0.00 0.00 0.00 51 1021.3
20260509124058 21 0 0.0 0.0 0.00 0.00 0.00 50 1021.5
20260509123100 21 0 0.0 0.0 0.00 0.00 0.00 49 1021.6
20260509122056 21 0 0.0 0.0 0.00 0.00 0.00 50 1021.7
20260509115101 20 0 0.0 0.0 0.00 0.00 0.00 51 1022.1
20260509113058 21 0 0.0 0.0 0.00 0.00 0.00 50 1022.2
20260509111058 20 0 0.0 0.0 0.00 0.00 0.00 52 1022.3
20260509105058 20 0 0.0 0.0 0.00 0.00 0.00 51 1022.4
20260509103055 21 0 0.0 0.0 0.00 0.00 0.00 53 1022.5
20260509102100 20 0 0.0 0.0 0.00 0.00 0.00 53 1022.6
20260509101059 21 0 0.0 0.0 0.00 0.00 0.00 56 1022.6
20260509095059 20 0 0.0 0.0 0.00 0.00 0.00 58 1022.6
20260509093059 20 0 0.0 0.0 0.00 0.00 0.00 60 1022.7
20260509092056 19 0 0.0 0.0 0.00 0.00 0.00 60 1022.7
20260509091056 18 0 0.0 0.0 0.00 0.00 0.00 60 1022.7
20260509090057 18 0 0.0 0.0 0.00 0.00 0.00 61 1022.8
20260509085056 18 0 0.0 0.0 0.00 0.00 0.00 62 1022.8
20260509084059 17 0 0.0 0.0 0.00 0.00 0.00 64 1023.0
20260509083058 16 0 0.0 0.0 0.00 0.00 0.00 69 1023.0
20260509082059 16 0 0.0 0.0 0.00 0.00 0.00 71 1023.1
20260509081102 15 0 0.0 0.0 0.00 0.00 0.00 73 1023.2
20260509080059 15 0 0.0 0.0 0.00 0.00 0.00 73 1023.3
20260509075057 15 0 0.0 0.0 0.00 0.00 0.00 74 1023.3
20260509074059 14 0 0.0 0.0 0.00 0.00 0.00 76 1023.4
20260509072058 13 0 0.0 0.0 0.00 0.00 0.00 77 1023.4
20260509071057 13 0 0.0 0.0 0.00 0.00 0.00 83 1023.4
20260509070055 13 0 0.0 0.0 0.00 0.00 0.00 84 1023.4
20260509065054 12 0 0.0 0.0 0.00 0.00 0.00 85 1023.3